TimeCST,TemperatureF,Dew PointF,Humidity,Sea Level PressureIn,VisibilityMPH,Wind Direction,Wind SpeedMPH,Gust SpeedMPH,PrecipitationIn,Events,Conditions,WindDirDegrees,DateUTC
12:54 AM,41.0,37.0,86,30.41,10.0,Calm,Calm,-,N/A,,Clear,0,2012-11-28 06:54:00
1:54 AM,39.0,36.0,89,30.41,10.0,Calm,Calm,-,N/A,,Clear,0,2012-11-28 07:54:00
2:54 AM,39.0,35.1,86,30.43,10.0,Variable,3.5,-,N/A,,Clear,0,2012-11-28 08:54:00
3:54 AM,37.9,35.1,89,30.43,9.0,Variable,3.5,-,N/A,,Clear,0,2012-11-28 09:54:00
4:54 AM,37.0,34.0,89,30.44,8.0,Calm,Calm,-,N/A,,Clear,0,2012-11-28 10:54:00
5:54 AM,35.1,33.1,92,30.46,4.0,Calm,Calm,-,N/A,,Clear,0,2012-11-28 11:54:00
6:54 AM,35.1,33.1,92,30.49,4.0,Calm,Calm,-,N/A,,Clear,0,2012-11-28 12:54:00
7:54 AM,39.9,36.0,86,30.51,8.0,Calm,Calm,-,N/A,,Clear,0,2012-11-28 13:54:00
8:54 AM,44.1,37.9,79,30.52,10.0,Variable,3.5,-,N/A,,Clear,0,2012-11-28 14:54:00
9:54 AM,48.9,39.9,71,30.54,10.0,Variable,5.8,-,N/A,,Clear,0,2012-11-28 15:54:00
10:54 AM,53.1,39.0,59,30.53,10.0,Variable,3.5,-,N/A,,Clear,0,2012-11-28 16:54:00
11:54 AM,57.9,36.0,44,30.50,10.0,Variable,3.5,-,N/A,,Clear,0,2012-11-28 17:54:00
12:54 PM,60.1,36.0,41,30.46,10.0,Variable,4.6,-,N/A,,Clear,0,2012-11-28 18:54:00
1:54 PM,61.0,33.1,35,30.43,10.0,Variable,3.5,-,N/A,,Clear,0,2012-11-28 19:54:00
2:54 PM,63.0,30.9,30,30.41,10.0,Variable,3.5,-,N/A,,Clear,0,2012-11-28 20:54:00
3:54 PM,62.1,33.1,34,30.40,10.0,Calm,Calm,-,N/A,,Clear,0,2012-11-28 21:54:00
4:54 PM,54.0,37.0,53,30.40,10.0,Calm,Calm,-,N/A,,Clear,0,2012-11-28 22:54:00
5:54 PM,46.9,37.0,68,30.41,10.0,Calm,Calm,-,N/A,,Clear,0,2012-11-28 23:54:00
6:54 PM,43.0,36.0,76,30.43,10.0,Calm,Calm,-,N/A,,Clear,0,2012-11-29 00:54:00
7:54 PM,41.0,35.1,79,30.44,10.0,Calm,Calm,-,N/A,,Clear,0,2012-11-29 01:54:00
8:54 PM,39.0,35.1,86,30.44,10.0,Calm,Calm,-,N/A,,Clear,0,2012-11-29 02:54:00
9:54 PM,39.0,35.1,86,30.43,10.0,Calm,Calm,-,N/A,,Clear,0,2012-11-29 03:54:00
10:54 PM,42.1,34.0,73,30.43,10.0,Calm,Calm,-,N/A,,Clear,0,2012-11-29 04:54:00
11:54 PM,39.0,36.0,89,30.41,10.0,Calm,Calm,-,N/A,,Clear,0,2012-11-29 05:54:00